"Pseudo-MPEC" for CEQZ4U2

Created 2026 Sep 3 2:35:04 UT using Find_Orb

Click here for an explanation of pseudo-MPECs

 
 Astrometry: 
     CEQZ4U2*1C2026 09 02.31133500 18 48.985-16 25 41.16   ~928K 18.85GVNEOCPG96
     CEQZ4U2 1C2026 09 02.31655400 18 47.830-16 25 24.82   ~928K 18.97GVNEOCPG96
     CEQZ4U2 1C2026 09 02.32176900 18 46.688-16 25 08.98   ~928K 18.84GVNEOCPG96
     CEQZ4U2 1C2026 09 02.32698500 18 45.522-16 24 52.78   ~928K 18.93GVNEOCPG96
     CEQZ4U2 1C2026 09 02.35836300 18 38.632-16 23 15.43   ~9295 19.13GVNEOCPG96
     CEQZ4U2 1C2026 09 02.36114300 18 38.016-16 23 07.58   ~9295 18.89GVNEOCPG96
     CEQZ4U2 1C2026 09 02.36239800 18 37.724-16 23 03.12   ~9295 19.23GVNEOCPG96
     CEQZ4U2 1C2026 09 02.36394800 18 37.339-16 22 58.40   ~9295 18.90GVNEOCPG96
     CEQZ4U2 1B2026 09 02.91028200 16 40.843-15 54 16.31   ~92MZ 19.0 VZNEOCPM49
     CEQZ4U2 1B2026 09 02.91565000 16 39.655-15 53 59.71   ~92MZ 18.7 VZNEOCPM49
     CEQZ4U2 1B2026 09 02.92101600 16 38.443-15 53 42.86   ~92MZ 18.6 VZNEOCPM49
     CEQZ4U2 KB2026 09 02.98450 00 16 24.14 -15 50 45.5    ~930K 19.0 GXNEOCPL04
     CEQZ4U2 KC2026 09 02.98600700 16 24.203-15 50 37.36   ~930K 18.7 GWNEOCPB74
     CEQZ4U2 KC2026 09 02.99151600 16 22.985-15 50 20.13   ~930K 18.9 GWNEOCPB74
     CEQZ4U2 KB2026 09 02.99589 00 16 21.66 -15 50 08.4    ~930K 18.6 GXNEOCPL04
     CEQZ4U2 KC2026 09 03.00101900 16 20.898-15 49 50.86   ~930K 18.8 GWNEOCPB74

Station data:
(B74) Santa Maria de Montmagastrell  (N41.720158 E1.105360)  Spain.  Observer
   J. M. Bosch. 0.4-m f/1.2 Schmidt-Cassegrain + CCD.
(G96) Mt. Lemmon Survey  (N32.442729 W110.788720)
   US/Arizona.  Observer E. J. Christensen. Measurers T. Beuden, V. F.
   Carvajal, D. Fay, J. B. Fazekas, D. C. Fuls, A. R. Gibbs, A. D. Grauer, H.
   Gröller, J. K. Hogan, R. A. Kowalski, S. M. Larson, G. J. Leonard, D.
   Rankin, R. L. Seaman, F. C. Shelly, K. W. Wierzchoś. 1.5-m reflector + 10K
   CCD.
(L04) ROASTERR-1 Observatory, Cluj-Napoca  (N46.820952 E23.596400)  Romania.
   Observer L. Hudin. 0.1-m f/9 refractor + CCD.
(M49) IAS Remote Observatory, Hakos  (S23.236549 E16.361720)  Namibia.
   Observers D. Husar, M. Junius. Measurer D. Husar. 0.25-m f/4.6 reflector +
   CCD.

Orbital elements:  CEQZ4U2
   Perihelion 2026 Aug 8.365608 +/- 13.1 TT =  8:46:28.5 (JD 2461260.865608)
Epoch 2026 Sep  3.0 TT = JDT 2461286.5   Earth MOID: 0.4440   Ma: 0.0681
M   7.198488247 +/- 3.2             (J2000 ecliptic)             AutoNEOCP
n   0.280813696 +/- 0.0219          Peri.  333.853914 +/- 9
a   2.309531333 +/- 0.12            Node   352.470691 +/- 0.22
e   0.38479916 +/- 0.0366           Incl.   35.366925 +/- 0.8
P   3.50983                H 19.13  G  0.15   U 10.2
q 1.420825602 +/- 0.0189    Q 3.198237065 +/- 0.249
From 16 observations 2026 Sept. 2-3 (16.6 hr); mean residual 0".37
Residuals in arcseconds: 
260902 G96  .02+  .05+    260902 G96  .10+  .03+    260902 B74  .05-  .74+    
260902 G96  .05-  .26+    260902 G96  .52-  .06-    260902 B74  .03-  .73+    
260902 G96  .05+  .02-    260902 M49  .02+  .05+    260902 L04  .33+  .07-    
260902 G96  .18-  .05+    260902 M49  .03+  .08-    260903 B74  .21+  .26+    
260902 G96  .34+  .23+    260902 M49  .29-  .04+    
260902 G96  .31+  .54-    260902 L04  .26-  1.4-    

Ephemerides (geocentric):
Date (UTC) HH   RA             Dec           delta  r     elong  mag " sig PA
---- --------  ------------   ------------  ------ ------ -----  --- --------
2026 09 03 03  00 15 53.780   -15 43 05.47  .45595 1.4393 156.9 19.1 .574 138
2026 09 03 04  00 15 44.781   -15 40 54.31  .45585 1.4394 157.0 19.1 .695 137
2026 09 03 05  00 15 35.778   -15 38 43.05  .45576 1.4394 157.0 19.1 .826 136
2026 09 03 06  00 15 26.770   -15 36 31.69  .45566 1.4395 157.1 19.1 .968 135
2026 09 03 07  00 15 17.757   -15 34 20.24  .45557 1.4395 157.2 19.1 1.12 135
2026 09 03 08  00 15 08.741   -15 32 08.70  .45547 1.4396 157.3 19.1 1.28 134
2026 09 03 09  00 14 59.719   -15 29 57.05  .45538 1.4397 157.3 19.1 1.46 134
2026 09 03 10  00 14 50.694   -15 27 45.32  .45528 1.4397 157.4 19.1 1.64 134
2026 09 03 11  00 14 41.664   -15 25 33.49  .45519 1.4398 157.5 19.1 1.84 134
2026 09 03 12  00 14 32.630   -15 23 21.57  .45510 1.4398 157.5 19.1 2.04 134
2026 09 03 13  00 14 23.591   -15 21 09.55  .45500 1.4399 157.6 19.1 2.26 134
2026 09 03 14  00 14 14.548   -15 18 57.44  .45491 1.4400 157.7 19.1 2.48 134
2026 09 03 15  00 14 05.501   -15 16 45.24  .45482 1.4400 157.8 19.1 2.72 133
2026 09 03 16  00 13 56.449   -15 14 32.95  .45473 1.4401 157.8 19.1 2.97 133
2026 09 03 17  00 13 47.393   -15 12 20.56  .45464 1.4401 157.9 19.1 3.23 133
2026 09 03 18  00 13 38.334   -15 10 08.09  .45455 1.4402 158.0 19.0 3.49 133
2026 09 03 19  00 13 29.270   -15 07 55.52  .45447 1.4403 158.1 19.0 3.77 133
2026 09 03 20  00 13 20.201   -15 05 42.86  .45438 1.4403 158.1 19.0 4.06 133
2026 09 03 21  00 13 11.129   -15 03 30.11  .45429 1.4404 158.2 19.0 4.36 133
2026 09 03 22  00 13 02.053   -15 01 17.28  .45420 1.4404 158.3 19.0 4.68 133
2026 09 03 23  00 12 52.973   -14 59 04.35  .45412 1.4405 158.4 19.0 5.00 133
2026 09 04 00  00 12 43.888   -14 56 51.33  .45403 1.4406 158.4 19.0 5.33 133
2026 09 04 01  00 12 34.800   -14 54 38.23  .45395 1.4406 158.5 19.0 5.67 133
2026 09 04 02  00 12 25.708   -14 52 25.03  .45386 1.4407 158.6 19.0 6.03 133
2026 09 04 03  00 12 16.612   -14 50 11.75  .45378 1.4408 158.7 19.0 6.39 133
2026 09 04 04  00 12 07.511   -14 47 58.38  .45370 1.4408 158.7 19.0 6.77 133
2026 09 04 05  00 11 58.407   -14 45 44.92  .45361 1.4409 158.8 19.0 7.15 133
2026 09 04 06  00 11 49.300   -14 43 31.38  .45353 1.4409 158.9 19.0 7.55 133
2026 09 04 07  00 11 40.188   -14 41 17.74  .45345 1.4410 159.0 19.0 7.96 133
2026 09 04 08  00 11 31.073   -14 39 04.03  .45337 1.4411 159.0 19.0 8.38 133
2026 09 04 09  00 11 21.954   -14 36 50.22  .45329 1.4411 159.1 19.0 8.80 133
2026 09 04 10  00 11 12.831   -14 34 36.33  .45321 1.4412 159.2 19.0 9.24 133
2026 09 04 11  00 11 03.704   -14 32 22.36  .45313 1.4412 159.3 19.0 9.69 133
2026 09 04 12  00 10 54.574   -14 30 08.30  .45306 1.4413 159.4 19.0 10.2 133
2026 09 04 13  00 10 45.440   -14 27 54.16  .45298 1.4414 159.4 19.0 10.6 133
2026 09 04 14  00 10 36.303   -14 25 39.93  .45290 1.4414 159.5 19.0 11.1 133
2026 09 04 15  00 10 27.162   -14 23 25.62  .45282 1.4415 159.6 19.0 11.6 133
2026 09 04 16  00 10 18.018   -14 21 11.23  .45275 1.4416 159.7 19.0 12.1 133
2026 09 04 17  00 10 08.870   -14 18 56.75  .45267 1.4416 159.7 19.0 12.6 133
2026 09 04 18  00 09 59.718   -14 16 42.19  .45260 1.4417 159.8 19.0 13.1 133
2026 09 04 19  00 09 50.563   -14 14 27.55  .45253 1.4417 159.9 19.0 13.7 133
2026 09 04 20  00 09 41.405   -14 12 12.83  .45245 1.4418 160.0 19.0 14.2 133
2026 09 04 21  00 09 32.243   -14 09 58.02  .45238 1.4419 160.0 19.0 14.8 133
2026 09 04 22  00 09 23.078   -14 07 43.14  .45231 1.4419 160.1 19.0 15.4 133
2026 09 04 23  00 09 13.910   -14 05 28.17  .45224 1.4420 160.2 19.0 15.9 133
2026 09 05 00  00 09 04.738   -14 03 13.13  .45217 1.4421 160.3 19.0 16.5 133
2026 09 05 01  00 08 55.563   -14 00 58.00  .45210 1.4421 160.3 19.0 17.1 133
2026 09 05 02  00 08 46.385   -13 58 42.80  .45203 1.4422 160.4 19.0 17.7 133